星链-37144(STARLINK-37144)

导读

STARLINK-37144(NORAD编号68556)是美国太空探索技术公司(SpaceX)Starlink星链互联网星座中的一颗卫星,于2024年12月8日发射入轨,属于Starlink V1.0卫星平台。 该卫星运行在近地轨道,轨道倾角约43°,近地点约355公里,远地点约357公里,轨道周期约91.66分钟,截至2026年4月已在轨飞行超480天。作为星链项目的一部分,它为全球提供高速低延迟卫星互联网服务,支持包括偏远地区接入网络以及特定行业通信需求。

基本信息
目录编号:
68556
目录名称:
STARLINK-37144
国际标识:
2026-070Q
轨道中心:
EARTH
卫星名称:
星链-37144
卫星全名:
星链-37144(STARLINK-37144)
卫星状态:
在轨 (已飞行162 天)
发射日期:
2026-04-02 UTC
国别 :
美国 (US)
星等 :
--
该卫星已列入 空间交会检测服务 Space Conjunction Data Service (SCDS) ,当前飞行风险评估等级: 高风险
轨道信息
数据来源 国际轨道数据 AOE轨道数据
星历时间 2026-09-11T14:45:42+0800
9小时前
查看轨道信息
2026-09-06T22:00:00+0800
5天前
查看轨道信息
半长轴 6840.724km 6840.862km
偏心率 0.000088 0.0001159
轨道倾角 53.158° 53.157°
近地点辐角 188.149° 90.910°
升交点赤经 216.688° 238.655°
平近点角 171.950° 221.633°
近地点 461.985km 461.932km
远地点 463.189km 463.518km
周期 93.845分钟 93.848分钟
每日圈数 15.344394 15.34393
详细信息
固有亮度:
5
最大亮度:
2.5
卫星平台:
Starlink V1.0
覆盖范围:
全球
运营商:
太空探索技术公司
运营商所在国:
美国
制造商(研发单位):
太空探索技术公司
制造商所在国:
美国
使用方式:
暂无
卫星简介
Starlink 计划是 SpaceX 推出的全球卫星互联网项目,通过发射低轨道卫星,为全球尤其是偏远地区提供高速、低延迟的互联网服务。自 2019 年起,Starlink 已部署数千颗卫星,旨在缩小全球数字鸿沟,推动互联网普及。该项目还为军事、航空等行业提供通信支持,带来广泛经济效益。
2D轨道图
3D轨道图
轨道高度分析图
轨道倾角分析图
轨道综合分析图
查看轨道综合分析图
交会数据列表
事件ID 空间交会对象 最接近时刻(TCA) 交会距离 交会风险概率(CRP) 交会风险指数(CRI) 操作
CDM_260912-223705-927206-855621
2026-09-12T
22:37:02+0000
0.455 km
远距离
2.253268E-4 高风险 0.82
CDM_260913-092804-976806-855621
2026-09-13T
09:28:39+0000
0.474 km
远距离
2.038436E-4 高风险 0.81
CDM_260911-115606-034906-855621
2026-09-11T
11:56:31+0000
0.634 km
远距离
7.089243E-5 中风险 0.72
CDM_260912-124706-826206-855622
2026-09-12T
12:47:26+0000
0.580 km
远距离
6.815029E-5 中风险 0.72
CDM_260912-081106-689706-855621
2026-09-12T
08:11:21+0000
0.727 km
远距离
2.278596E-5 中风险 0.62
CDM_260912-054506-826206-855622
2026-09-12T
05:45:23+0000
0.890 km
远距离
1.767379E-5 中风险 0.6
CDM_260911-163805-803806-855621
2026-09-11T
16:38:15+0000
1.019 km
极远距离
1.578182E-5 中风险 0.59
CDM_260912-024705-803806-855621
2026-09-12T
02:47:53+0000
1.033 km
极远距离
1.504846E-5 中风险 0.59
CDM_260913-182905-111006-855621
2026-09-13T
18:29:11+0000
1.003 km
极远距离
1.25153E-5 中风险 0.57
CDM_260913-080505-767606-855621
2026-09-13T
08:05:38+0000
1.212 km
极远距离
1.189606E-5 中风险 0.57
与全量物体交会距离演化趋势
与全量物体交会风险概率演化趋势